date,time,water_lv
2022-11-01,00:00:00,143.42
2022-11-01,00:10:00,143.42
2022-11-01,00:20:00,143.43
2022-11-01,00:30:00,143.43
2022-11-01,00:40:00,143.42
2022-11-01,00:50:00,143.42
2022-11-01,01:00:00,143.41
2022-11-01,01:10:00,143.42
2022-11-01,01:20:00,143.41
2022-11-01,01:30:00,143.41
2022-11-01,01:40:00,143.41
2022-11-01,01:50:00,143.42
2022-11-01,02:00:00,143.4
2022-11-01,02:10:00,143.42
2022-11-01,02:20:00,143.41
2022-11-01,02:30:00,143.4
2022-11-01,02:40:00,143.35
2022-11-01,02:50:00,143.41
2022-11-01,03:00:00,143.41
2022-11-01,03:10:00,143.4
2022-11-01,03:20:00,143.41
2022-11-01,03:30:00,143.41
2022-11-01,03:40:00,143.4
2022-11-01,03:50:00,143.4
2022-11-01,04:00:00,143.41
2022-11-01,04:10:00,143.39
2022-11-01,04:20:00,143.4
2022-11-01,04:30:00,143.4
2022-11-01,04:40:00,143.4
2022-11-01,04:50:00,143.4
2022-11-01,05:00:00,143.4
2022-11-01,05:10:00,143.4
2022-11-01,05:20:00,143.39
2022-11-01,05:30:00,143.4
2022-11-01,05:40:00,143.39
2022-11-01,05:50:00,143.38
2022-11-01,06:00:00,143.39
2022-11-01,06:10:00,143.39
2022-11-01,06:20:00,143.36
2022-11-01,06:30:00,143.39
2022-11-01,06:40:00,143.39
2022-11-01,06:50:00,143.38
2022-11-01,07:00:00,143.38
2022-11-01,07:10:00,143.38
2022-11-01,07:20:00,143.37
2022-11-01,07:30:00,143.38
2022-11-01,07:40:00,143.37
2022-11-01,07:50:00,143.37
2022-11-01,08:00:00,143.36
2022-11-01,08:10:00,143.32
2022-11-01,08:20:00,143.36
2022-11-01,08:30:00,143.37
2022-11-01,08:40:00,-
2022-11-01,08:50:00,143.36
2022-11-01,09:00:00,143.36
2022-11-01,09:10:00,143.34
2022-11-01,09:20:00,143.36
2022-11-01,09:30:00,143.36
2022-11-01,09:40:00,143.36
2022-11-01,09:50:00,143.35
2022-11-01,10:00:00,143.34
2022-11-01,10:10:00,143.34
2022-11-01,10:20:00,143.35
2022-11-01,10:30:00,143.35
2022-11-01,10:40:00,143.35
2022-11-01,10:50:00,143.34
2022-11-01,11:00:00,143.35
2022-11-01,11:10:00,143.32
2022-11-01,11:20:00,143.34
2022-11-01,11:30:00,143.35
2022-11-01,11:40:00,143.35
2022-11-01,11:50:00,143.34
2022-11-01,12:00:00,143.34
2022-11-01,12:10:00,143.34
2022-11-01,12:20:00,143.34
2022-11-01,12:30:00,143.33
2022-11-01,12:40:00,143.33
2022-11-01,12:50:00,143.34
2022-11-01,13:00:00,143.32
2022-11-01,13:10:00,143.33
2022-11-01,13:20:00,143.33
2022-11-01,13:30:00,143.33
2022-11-01,13:40:00,143.33
2022-11-01,13:50:00,143.32
2022-11-01,14:00:00,143.32
2022-11-01,14:10:00,143.33
2022-11-01,14:20:00,143.31
2022-11-01,14:30:00,143.32
2022-11-01,14:40:00,143.32
2022-11-01,14:50:00,143.27
2022-11-01,15:00:00,143.28
2022-11-01,15:10:00,143.31
2022-11-01,15:20:00,143.31
2022-11-01,15:30:00,143.31
2022-11-01,15:40:00,143.31
2022-11-01,15:50:00,143.31
2022-11-01,16:00:00,143.31
2022-11-01,16:10:00,143.31
2022-11-01,16:20:00,143.3
2022-11-01,16:30:00,143.3
2022-11-01,16:40:00,143.31
2022-11-01,16:50:00,143.3
2022-11-01,17:00:00,143.3
2022-11-01,17:10:00,143.28
2022-11-01,17:20:00,143.3
2022-11-01,17:30:00,143.3
2022-11-01,17:40:00,143.29
2022-11-01,17:50:00,143.29
2022-11-01,18:00:00,143.3
2022-11-01,18:10:00,143.29
2022-11-01,18:20:00,143.3
2022-11-01,18:30:00,143.29
2022-11-01,18:40:00,143.3
2022-11-01,18:50:00,143.3
2022-11-01,19:00:00,143.29
2022-11-01,19:10:00,143.29
2022-11-01,19:20:00,143.24
2022-11-01,19:30:00,-
2022-11-01,19:40:00,143.29
2022-11-01,19:50:00,-
2022-11-01,20:00:00,143.29
2022-11-01,20:10:00,143.28
2022-11-01,20:20:00,143.29
2022-11-01,20:30:00,143.28
2022-11-01,20:40:00,143.28
2022-11-01,20:50:00,143.28
2022-11-01,21:00:00,143.27
2022-11-01,21:10:00,143.28
2022-11-01,21:20:00,143.28
2022-11-01,21:30:00,143.29
2022-11-01,21:40:00,143.27
2022-11-01,21:50:00,143.26
2022-11-01,22:00:00,143.27
2022-11-01,22:10:00,143.27
2022-11-01,22:20:00,143.24
2022-11-01,22:30:00,143.28
2022-11-01,22:40:00,143.27
2022-11-01,22:50:00,143.27
2022-11-01,23:00:00,143.26
2022-11-01,23:10:00,143.26
2022-11-01,23:20:00,143.27
2022-11-01,23:30:00,143.26
2022-11-01,23:40:00,143.27
2022-11-01,23:50:00,143.25
2022-11-02,00:00:00,143.26
2022-11-02,00:10:00,143.25
2022-11-02,00:20:00,143.26
2022-11-02,00:30:00,143.25
2022-11-02,00:40:00,143.24
2022-11-02,00:50:00,143.25
2022-11-02,01:00:00,143.24
2022-11-02,01:10:00,-
2022-11-02,01:20:00,-
2022-11-02,01:30:00,-
2022-11-02,01:40:00,143.25
2022-11-02,01:50:00,143.24
2022-11-02,02:00:00,143.24
2022-11-02,02:10:00,143.24
2022-11-02,02:20:00,143.25
2022-11-02,02:30:00,143.21
2022-11-02,02:40:00,143.24
2022-11-02,02:50:00,143.24
2022-11-02,03:00:00,143.24
2022-11-02,03:10:00,-
2022-11-02,03:20:00,143.23
2022-11-02,03:30:00,143.23
2022-11-02,03:40:00,143.23
2022-11-02,03:50:00,143.23
2022-11-02,04:00:00,143.22
2022-11-02,04:10:00,143.23
2022-11-02,04:20:00,143.21
2022-11-02,04:30:00,143.23
2022-11-02,04:40:00,143.22
2022-11-02,04:50:00,143.23
2022-11-02,05:00:00,143.21
2022-11-02,05:10:00,143.22
2022-11-02,05:20:00,143.21
2022-11-02,05:30:00,143.22
2022-11-02,05:40:00,143.22
2022-11-02,05:50:00,143.22
2022-11-02,06:00:00,143.19
2022-11-02,06:10:00,143.2
2022-11-02,06:20:00,143.21
2022-11-02,06:30:00,143.21
2022-11-02,06:40:00,143.2
2022-11-02,06:50:00,143.21
2022-11-02,07:00:00,143.2
2022-11-02,07:10:00,143.19
2022-11-02,07:20:00,143.2
2022-11-02,07:30:00,143.21
2022-11-02,07:40:00,143.2
2022-11-02,07:50:00,143.2
2022-11-02,08:00:00,143.19
2022-11-02,08:10:00,143.18
2022-11-02,08:20:00,143.19
2022-11-02,08:30:00,143.18
2022-11-02,08:40:00,143.18
2022-11-02,08:50:00,143.14
2022-11-02,09:00:00,143.19
2022-11-02,09:10:00,143.19
2022-11-02,09:20:00,143.19
2022-11-02,09:30:00,143.18
2022-11-02,09:40:00,143.18
2022-11-02,09:50:00,143.17
2022-11-02,10:00:00,143.19
2022-11-02,10:10:00,143.18
2022-11-02,10:20:00,143.18
2022-11-02,10:30:00,143.17
2022-11-02,10:40:00,143.14
2022-11-02,10:50:00,143.16
2022-11-02,11:00:00,143.15
2022-11-02,11:10:00,143.17
2022-11-02,11:20:00,143.17
2022-11-02,11:30:00,143.16
2022-11-02,11:40:00,143.17
2022-11-02,11:50:00,143.13
2022-11-02,12:00:00,143.16
2022-11-02,12:10:00,143.16
2022-11-02,12:20:00,143.16
2022-11-02,12:30:00,143.15
2022-11-02,12:40:00,143.15
2022-11-02,12:50:00,143.16
2022-11-02,13:00:00,143.13
2022-11-02,13:10:00,143.16
2022-11-02,13:20:00,143.11
2022-11-02,13:30:00,143.15
2022-11-02,13:40:00,143.15
2022-11-02,13:50:00,143.15
2022-11-02,14:00:00,143.14
2022-11-02,14:10:00,143.15
2022-11-02,14:20:00,143.15
2022-11-02,14:30:00,143.11
2022-11-02,14:40:00,143.14
2022-11-02,14:50:00,143.14
2022-11-02,15:00:00,143.15
2022-11-02,15:10:00,143.14
2022-11-02,15:20:00,143.13
2022-11-02,15:30:00,143.1
2022-11-02,15:40:00,143.07
2022-11-02,15:50:00,143.13
2022-11-02,16:00:00,143.09
2022-11-02,16:10:00,143.11
2022-11-02,16:20:00,143.12
2022-11-02,16:30:00,143.12
2022-11-02,16:40:00,143.11
2022-11-02,16:50:00,143.06
2022-11-02,17:00:00,143.09
2022-11-02,17:10:00,143.12
2022-11-02,17:20:00,143.11
2022-11-02,17:30:00,143.05
2022-11-02,17:40:00,143.1
2022-11-02,17:50:00,143.11
2022-11-02,18:00:00,143.12
2022-11-02,18:10:00,143.12
2022-11-02,18:20:00,143.12
2022-11-02,18:30:00,143.11
2022-11-02,18:40:00,143.12
2022-11-02,18:50:00,143.12
2022-11-02,19:00:00,143.11
2022-11-02,19:10:00,143.11
2022-11-02,19:20:00,143.12
2022-11-02,19:30:00,143.12
2022-11-02,19:40:00,143.11
2022-11-02,19:50:00,143.11
2022-11-02,20:00:00,143.09
2022-11-02,20:10:00,143.1
2022-11-02,20:20:00,143.1
2022-11-02,20:30:00,143.1
2022-11-02,20:40:00,143.1
2022-11-02,20:50:00,143.09
2022-11-02,21:00:00,143.08
2022-11-02,21:10:00,143.1
2022-11-02,21:20:00,143.04
2022-11-02,21:30:00,143.1
2022-11-02,21:40:00,143.05
2022-11-02,21:50:00,143.09
2022-11-02,22:00:00,143.1
2022-11-02,22:10:00,143.08
2022-11-02,22:20:00,143.08
2022-11-02,22:30:00,143.08
2022-11-02,22:40:00,143.08
2022-11-02,22:50:00,143.09
2022-11-02,23:00:00,143.09
2022-11-02,23:10:00,143.08
2022-11-02,23:20:00,143.08
2022-11-02,23:30:00,143.03
2022-11-02,23:40:00,143.08
2022-11-02,23:50:00,143.07
2022-11-03,00:00:00,143.07
2022-11-03,00:10:00,143.02
2022-11-03,00:20:00,143.06
2022-11-03,00:30:00,143.08
2022-11-03,00:40:00,143.06
2022-11-03,00:50:00,143.07
2022-11-03,01:00:00,143.07
2022-11-03,01:10:00,143.05
2022-11-03,01:20:00,-
2022-11-03,01:30:00,143.06
2022-11-03,01:40:00,143.05
2022-11-03,01:50:00,143.06
2022-11-03,02:00:00,143.06
2022-11-03,02:10:00,-
2022-11-03,02:20:00,143.06
2022-11-03,02:30:00,143.06
2022-11-03,02:40:00,143.06
2022-11-03,02:50:00,143.05
2022-11-03,03:00:00,143.04
2022-11-03,03:10:00,143.04
2022-11-03,03:20:00,143.03
2022-11-03,03:30:00,143.05
2022-11-03,03:40:00,143.03
2022-11-03,03:50:00,143.03
2022-11-03,04:00:00,143.04
2022-11-03,04:10:00,143
2022-11-03,04:20:00,143.03
2022-11-03,04:30:00,143.03
2022-11-03,04:40:00,142.99
2022-11-03,04:50:00,143.04
2022-11-03,05:00:00,143.04
2022-11-03,05:10:00,143.04
2022-11-03,05:20:00,143.03
2022-11-03,05:30:00,143.03
2022-11-03,05:40:00,143.04
2022-11-03,05:50:00,143.03
2022-11-03,06:00:00,142.98
2022-11-03,06:10:00,143.03
2022-11-03,06:20:00,143.03
2022-11-03,06:30:00,142.99
2022-11-03,06:40:00,143.02
2022-11-03,06:50:00,143.03
2022-11-03,07:00:00,143.03
2022-11-03,07:10:00,143.02
2022-11-03,07:20:00,143.01
2022-11-03,07:30:00,143.01
2022-11-03,07:40:00,143.02
2022-11-03,07:50:00,143.02
2022-11-03,08:00:00,143.01
2022-11-03,08:10:00,142.96
2022-11-03,08:20:00,143.01
2022-11-03,08:30:00,142.98
2022-11-03,08:40:00,143.01
2022-11-03,08:50:00,143.01
2022-11-03,09:00:00,143
2022-11-03,09:10:00,142.99
2022-11-03,09:20:00,143
2022-11-03,09:30:00,142.99
2022-11-03,09:40:00,142.95
2022-11-03,09:50:00,143
2022-11-03,10:00:00,142.98
2022-11-03,10:10:00,142.98
2022-11-03,10:20:00,142.95
2022-11-03,10:30:00,142.98
2022-11-03,10:40:00,142.98
2022-11-03,10:50:00,142.92
2022-11-03,11:00:00,142.98
2022-11-03,11:10:00,142.97
2022-11-03,11:20:00,142.98
2022-11-03,11:30:00,142.97
2022-11-03,11:40:00,142.97
2022-11-03,11:50:00,142.95
2022-11-03,12:00:00,142.96
2022-11-03,12:10:00,142.97
2022-11-03,12:20:00,142.97
2022-11-03,12:30:00,142.93
2022-11-03,12:40:00,142.97
2022-11-03,12:50:00,142.94
2022-11-03,13:00:00,142.96
2022-11-03,13:10:00,142.93
2022-11-03,13:20:00,142.95
2022-11-03,13:30:00,142.91
2022-11-03,13:40:00,142.96
2022-11-03,13:50:00,142.9
2022-11-03,14:00:00,142.92
2022-11-03,14:10:00,142.93
2022-11-03,14:20:00,142.89
2022-11-03,14:30:00,142.94
2022-11-03,14:40:00,142.89
2022-11-03,14:50:00,142.93
2022-11-03,15:00:00,142.93
2022-11-03,15:10:00,142.93
2022-11-03,15:20:00,142.94
2022-11-03,15:30:00,142.93
2022-11-03,15:40:00,142.91
2022-11-03,15:50:00,142.93
2022-11-03,16:00:00,142.84
2022-11-03,16:10:00,142.91
2022-11-03,16:20:00,142.88
2022-11-03,16:30:00,142.92
2022-11-03,16:40:00,142.92
2022-11-03,16:50:00,142.9
2022-11-03,17:00:00,142.92
2022-11-03,17:10:00,142.91
2022-11-03,17:20:00,142.9
2022-11-03,17:30:00,142.91
2022-11-03,17:40:00,142.91
2022-11-03,17:50:00,142.89
2022-11-03,18:00:00,142.91
2022-11-03,18:10:00,142.88
2022-11-03,18:20:00,142.91
2022-11-03,18:30:00,142.91
2022-11-03,18:40:00,142.88
2022-11-03,18:50:00,142.91
2022-11-03,19:00:00,142.87
2022-11-03,19:10:00,142.88
2022-11-03,19:20:00,142.87
2022-11-03,19:30:00,142.89
2022-11-03,19:40:00,142.89
2022-11-03,19:50:00,142.89
2022-11-03,20:00:00,142.89
2022-11-03,20:10:00,142.86
2022-11-03,20:20:00,142.88
2022-11-03,20:30:00,142.87
2022-11-03,20:40:00,142.86
2022-11-03,20:50:00,142.88
2022-11-03,21:00:00,142.88
2022-11-03,21:10:00,142.87
2022-11-03,21:20:00,142.88
2022-11-03,21:30:00,142.85
2022-11-03,21:40:00,142.87
2022-11-03,21:50:00,142.87
2022-11-03,22:00:00,142.84
2022-11-03,22:10:00,142.88
2022-11-03,22:20:00,142.87
2022-11-03,22:30:00,142.86
2022-11-03,22:40:00,142.85
2022-11-03,22:50:00,142.86
2022-11-03,23:00:00,142.86
2022-11-03,23:10:00,142.86
2022-11-03,23:20:00,142.82
2022-11-03,23:30:00,142.83
2022-11-03,23:40:00,142.86
2022-11-03,23:50:00,142.86
2022-11-04,00:00:00,142.84
2022-11-04,00:10:00,142.82
2022-11-04,00:20:00,142.83
2022-11-04,00:30:00,142.85
2022-11-04,00:40:00,142.8
2022-11-04,00:50:00,142.84
2022-11-04,01:00:00,142.85
2022-11-04,01:10:00,142.84
2022-11-04,01:20:00,142.83
2022-11-04,01:30:00,142.81
2022-11-04,01:40:00,142.84
2022-11-04,01:50:00,142.83
2022-11-04,02:00:00,142.83
2022-11-04,02:10:00,142.84
2022-11-04,02:20:00,142.77
2022-11-04,02:30:00,142.78
2022-11-04,02:40:00,142.82
2022-11-04,02:50:00,142.82
2022-11-04,03:00:00,142.81
2022-11-04,03:10:00,142.83
2022-11-04,03:20:00,142.78
2022-11-04,03:30:00,142.82
2022-11-04,03:40:00,142.82
2022-11-04,03:50:00,142.82
2022-11-04,04:00:00,142.81
2022-11-04,04:10:00,142.79
2022-11-04,04:20:00,142.8
2022-11-04,04:30:00,142.79
2022-11-04,04:40:00,142.8
2022-11-04,04:50:00,142.8
2022-11-04,05:00:00,142.79
2022-11-04,05:10:00,142.75
2022-11-04,05:20:00,142.76
2022-11-04,05:30:00,142.77
2022-11-04,05:40:00,142.8
2022-11-04,05:50:00,142.78
2022-11-04,06:00:00,142.74
2022-11-04,06:10:00,142.78
2022-11-04,06:20:00,142.78
2022-11-04,06:30:00,142.79
2022-11-04,06:40:00,142.77
2022-11-04,06:50:00,142.78
2022-11-04,07:00:00,142.76
2022-11-04,07:10:00,142.75
2022-11-04,07:20:00,142.77
2022-11-04,07:30:00,142.76
2022-11-04,07:40:00,142.73
2022-11-04,07:50:00,142.77
2022-11-04,08:00:00,142.76
2022-11-04,08:10:00,142.76
2022-11-04,08:20:00,142.7
2022-11-04,08:30:00,142.72
2022-11-04,08:40:00,142.72
2022-11-04,08:50:00,142.73
2022-11-04,09:00:00,142.72
2022-11-04,09:10:00,142.69
2022-11-04,09:20:00,142.73
2022-11-04,09:30:00,142.71
2022-11-04,09:40:00,142.69
2022-11-04,09:50:00,142.72
2022-11-04,10:00:00,142.73
2022-11-04,10:10:00,142.7
2022-11-04,10:20:00,142.7
2022-11-04,10:30:00,142.7
2022-11-04,10:40:00,142.72
2022-11-04,10:50:00,142.68
2022-11-04,11:00:00,142.69
2022-11-04,11:10:00,142.71
2022-11-04,11:20:00,142.69
2022-11-04,11:30:00,142.72
2022-11-04,11:40:00,142.68
2022-11-04,11:50:00,142.7
2022-11-04,12:00:00,142.69
2022-11-04,12:10:00,142.7
2022-11-04,12:20:00,142.67
2022-11-04,12:30:00,142.69
2022-11-04,12:40:00,142.68
2022-11-04,12:50:00,142.7
2022-11-04,13:00:00,142.69
2022-11-04,13:10:00,142.69
2022-11-04,13:20:00,142.66
2022-11-04,13:30:00,142.67
2022-11-04,13:40:00,142.62
2022-11-04,13:50:00,142.66
2022-11-04,14:00:00,142.64
2022-11-04,14:10:00,142.68
2022-11-04,14:20:00,142.65
2022-11-04,14:30:00,142.68
2022-11-04,14:40:00,142.63
2022-11-04,14:50:00,142.66
2022-11-04,15:00:00,142.67
2022-11-04,15:10:00,142.61
2022-11-04,15:20:00,142.67
2022-11-04,15:30:00,142.66
2022-11-04,15:40:00,142.66
2022-11-04,15:50:00,142.66
2022-11-04,16:00:00,142.66
2022-11-04,16:10:00,142.64
2022-11-04,16:20:00,142.58
2022-11-04,16:30:00,142.62
2022-11-04,16:40:00,142.65
2022-11-04,16:50:00,142.64
2022-11-04,17:00:00,142.64
2022-11-04,17:10:00,142.64
2022-11-04,17:20:00,142.64
2022-11-04,17:30:00,142.63
2022-11-04,17:40:00,142.64
2022-11-04,17:50:00,142.62
2022-11-04,18:00:00,142.63
2022-11-04,18:10:00,142.63
2022-11-04,18:20:00,142.58
2022-11-04,18:30:00,142.61
2022-11-04,18:40:00,142.62
2022-11-04,18:50:00,142.63
2022-11-04,19:00:00,142.62
2022-11-04,19:10:00,142.61
2022-11-04,19:20:00,142.61
2022-11-04,19:30:00,142.61
2022-11-04,19:40:00,142.6
2022-11-04,19:50:00,142.62
2022-11-04,20:00:00,142.61
2022-11-04,20:10:00,142.61
2022-11-04,20:20:00,142.61
2022-11-04,20:30:00,142.6
2022-11-04,20:40:00,142.61
2022-11-04,20:50:00,142.59
2022-11-04,21:00:00,142.6
2022-11-04,21:10:00,142.58
2022-11-04,21:20:00,142.58
2022-11-04,21:30:00,142.6
2022-11-04,21:40:00,142.58
2022-11-04,21:50:00,142.58
2022-11-04,22:00:00,142.58
2022-11-04,22:10:00,142.56
2022-11-04,22:20:00,142.57
2022-11-04,22:30:00,142.57
2022-11-04,22:40:00,142.58
2022-11-04,22:50:00,142.56
2022-11-04,23:00:00,142.57
2022-11-04,23:10:00,142.57
2022-11-04,23:20:00,142.56
2022-11-04,23:30:00,-
2022-11-04,23:40:00,142.55
2022-11-04,23:50:00,142.55
2022-11-05,00:00:00,142.54
2022-11-05,00:10:00,142.55
2022-11-05,00:20:00,142.53
2022-11-05,00:30:00,142.54
2022-11-05,00:40:00,142.53
2022-11-05,00:50:00,142.52
2022-11-05,01:00:00,142.53
2022-11-05,01:10:00,142.54
2022-11-05,01:20:00,142.52
2022-11-05,01:30:00,142.52
2022-11-05,01:40:00,142.53
2022-11-05,01:50:00,142.51
2022-11-05,02:00:00,142.49
2022-11-05,02:10:00,142.52
2022-11-05,02:20:00,142.52
2022-11-05,02:30:00,142.51
2022-11-05,02:40:00,142.5
2022-11-05,02:50:00,142.49
2022-11-05,03:00:00,142.51
2022-11-05,03:10:00,142.5
2022-11-05,03:20:00,142.5
2022-11-05,03:30:00,142.49
2022-11-05,03:40:00,142.5
2022-11-05,03:50:00,142.5
2022-11-05,04:00:00,142.49
2022-11-05,04:10:00,142.49
2022-11-05,04:20:00,142.48
2022-11-05,04:30:00,142.48
2022-11-05,04:40:00,142.48
2022-11-05,04:50:00,142.48
2022-11-05,05:00:00,142.47
2022-11-05,05:10:00,142.43
2022-11-05,05:20:00,142.47
2022-11-05,05:30:00,142.46
2022-11-05,05:40:00,142.47
2022-11-05,05:50:00,142.46
2022-11-05,06:00:00,142.47
2022-11-05,06:10:00,142.45
2022-11-05,06:20:00,142.45
2022-11-05,06:30:00,142.45
2022-11-05,06:40:00,142.45
2022-11-05,06:50:00,142.44
2022-11-05,07:00:00,142.46
2022-11-05,07:10:00,142.44
2022-11-05,07:20:00,142.45
2022-11-05,07:30:00,142.43
2022-11-05,07:40:00,142.42
2022-11-05,07:50:00,142.43
2022-11-05,08:00:00,142.4
2022-11-05,08:10:00,142.41
2022-11-05,08:20:00,142.42
2022-11-05,08:30:00,142.42
2022-11-05,08:40:00,142.41
2022-11-05,08:50:00,142.4
2022-11-05,09:00:00,142.41
2022-11-05,09:10:00,-
2022-11-05,09:20:00,142.36
2022-11-05,09:30:00,142.4
2022-11-05,09:40:00,142.4
2022-11-05,09:50:00,142.4
2022-11-05,10:00:00,142.39
2022-11-05,10:10:00,142.38
2022-11-05,10:20:00,142.38
2022-11-05,10:30:00,142.38
2022-11-05,10:40:00,142.37
2022-11-05,10:50:00,142.35
2022-11-05,11:00:00,142.35
2022-11-05,11:10:00,142.37
2022-11-05,11:20:00,142.35
2022-11-05,11:30:00,142.37
2022-11-05,11:40:00,142.35
2022-11-05,11:50:00,142.33
2022-11-05,12:00:00,142.31
2022-11-05,12:10:00,142.34
2022-11-05,12:20:00,142.33
2022-11-05,12:30:00,142.31
2022-11-05,12:40:00,142.34
2022-11-05,12:50:00,142.34
2022-11-05,13:00:00,142.34
2022-11-05,13:10:00,142.34
2022-11-05,13:20:00,142.34
2022-11-05,13:30:00,142.32
2022-11-05,13:40:00,142.33
2022-11-05,13:50:00,142.33
2022-11-05,14:00:00,142.32
2022-11-05,14:10:00,142.32
2022-11-05,14:20:00,142.32
2022-11-05,14:30:00,142.31
2022-11-05,14:40:00,142.3
2022-11-05,14:50:00,142.31
2022-11-05,15:00:00,142.31
2022-11-05,15:10:00,142.28
2022-11-05,15:20:00,142.26
2022-11-05,15:30:00,142.29
2022-11-05,15:40:00,142.29
2022-11-05,15:50:00,142.29
2022-11-05,16:00:00,142.28
2022-11-05,16:10:00,142.28
2022-11-05,16:20:00,142.27
2022-11-05,16:30:00,142.28
2022-11-05,16:40:00,142.28
2022-11-05,16:50:00,142.27
2022-11-05,17:00:00,142.27
2022-11-05,17:10:00,142.27
2022-11-05,17:20:00,142.26
2022-11-05,17:30:00,142.26
2022-11-05,17:40:00,142.26
2022-11-05,17:50:00,142.26
2022-11-05,18:00:00,142.21
2022-11-05,18:10:00,142.26
2022-11-05,18:20:00,142.25
2022-11-05,18:30:00,142.25
2022-11-05,18:40:00,142.24
2022-11-05,18:50:00,142.24
2022-11-05,19:00:00,142.23
2022-11-05,19:10:00,142.24
2022-11-05,19:20:00,142.2
2022-11-05,19:30:00,142.23
2022-11-05,19:40:00,142.24
2022-11-05,19:50:00,142.22
2022-11-05,20:00:00,142.23
2022-11-05,20:10:00,142.22
2022-11-05,20:20:00,142.18
2022-11-05,20:30:00,142.21
2022-11-05,20:40:00,142.21
2022-11-05,20:50:00,142.21
2022-11-05,21:00:00,142.2
2022-11-05,21:10:00,142.18
2022-11-05,21:20:00,142.2
2022-11-05,21:30:00,142.17
2022-11-05,21:40:00,142.19
2022-11-05,21:50:00,142.21
2022-11-05,22:00:00,142.19
2022-11-05,22:10:00,142.18
2022-11-05,22:20:00,142.18
2022-11-05,22:30:00,142.17
2022-11-05,22:40:00,142.19
2022-11-05,22:50:00,142.15
2022-11-05,23:00:00,142.14
2022-11-05,23:10:00,142.18
2022-11-05,23:20:00,142.15
2022-11-05,23:30:00,142.17
2022-11-05,23:40:00,142.17
2022-11-05,23:50:00,142.17
2022-11-06,00:00:00,142.13
2022-11-06,00:10:00,142.15
2022-11-06,00:20:00,142.15
2022-11-06,00:30:00,142.15
2022-11-06,00:40:00,142.15
2022-11-06,00:50:00,142.14
2022-11-06,01:00:00,142.1
2022-11-06,01:10:00,142.13
2022-11-06,01:20:00,142.11
2022-11-06,01:30:00,142.13
2022-11-06,01:40:00,142.13
2022-11-06,01:50:00,142.13
2022-11-06,02:00:00,142.13
2022-11-06,02:10:00,142.1
2022-11-06,02:20:00,142.1
2022-11-06,02:30:00,142.08
2022-11-06,02:40:00,142.08
2022-11-06,02:50:00,142.11
2022-11-06,03:00:00,142.1
2022-11-06,03:10:00,-
2022-11-06,03:20:00,142.11
2022-11-06,03:30:00,142.09
2022-11-06,03:40:00,142.06
2022-11-06,03:50:00,142.09
2022-11-06,04:00:00,142.09
2022-11-06,04:10:00,142.07
2022-11-06,04:20:00,142.07
2022-11-06,04:30:00,142.09
2022-11-06,04:40:00,142.07
2022-11-06,04:50:00,142.05
2022-11-06,05:00:00,142.07
2022-11-06,05:10:00,142.07
2022-11-06,05:20:00,142.06
2022-11-06,05:30:00,142.03
2022-11-06,05:40:00,142.04
2022-11-06,05:50:00,142.03
2022-11-06,06:00:00,142.06
2022-11-06,06:10:00,142.05
2022-11-06,06:20:00,142.04
2022-11-06,06:30:00,142.05
2022-11-06,06:40:00,142.05
2022-11-06,06:50:00,142.04
2022-11-06,07:00:00,142
2022-11-06,07:10:00,142.04
2022-11-06,07:20:00,142.03
2022-11-06,07:30:00,142.04
2022-11-06,07:40:00,142.03
2022-11-06,07:50:00,142.02
2022-11-06,08:00:00,142.03
2022-11-06,08:10:00,142.02
2022-11-06,08:20:00,142.02
2022-11-06,08:30:00,142.01
2022-11-06,08:40:00,142.02
2022-11-06,08:50:00,141.99
2022-11-06,09:00:00,141.99
2022-11-06,09:10:00,142
2022-11-06,09:20:00,142
2022-11-06,09:30:00,142
2022-11-06,09:40:00,-
2022-11-06,09:50:00,141.99
2022-11-06,10:00:00,141.96
2022-11-06,10:10:00,141.96
2022-11-06,10:20:00,141.97
2022-11-06,10:30:00,141.96
2022-11-06,10:40:00,141.99
2022-11-06,10:50:00,141.98
2022-11-06,11:00:00,141.97
2022-11-06,11:10:00,141.97
2022-11-06,11:20:00,141.94
2022-11-06,11:30:00,141.95
2022-11-06,11:40:00,141.95
2022-11-06,11:50:00,141.96
2022-11-06,12:00:00,141.93
2022-11-06,12:10:00,141.94
2022-11-06,12:20:00,141.94
2022-11-06,12:30:00,141.94
2022-11-06,12:40:00,141.92
2022-11-06,12:50:00,141.91
2022-11-06,13:00:00,141.93
2022-11-06,13:10:00,141.9
2022-11-06,13:20:00,141.92
2022-11-06,13:30:00,141.9
2022-11-06,13:40:00,141.9
2022-11-06,13:50:00,141.92
2022-11-06,14:00:00,141.92
2022-11-06,14:10:00,141.92
2022-11-06,14:20:00,141.88
2022-11-06,14:30:00,141.88
2022-11-06,14:40:00,141.89
2022-11-06,14:50:00,141.86
2022-11-06,15:00:00,141.88
2022-11-06,15:10:00,141.9
2022-11-06,15:20:00,141.89
2022-11-06,15:30:00,141.87
2022-11-06,15:40:00,141.88
2022-11-06,15:50:00,141.87
2022-11-06,16:00:00,141.87
2022-11-06,16:10:00,141.87
2022-11-06,16:20:00,141.86
2022-11-06,16:30:00,141.86
2022-11-06,16:40:00,141.87
2022-11-06,16:50:00,141.84
2022-11-06,17:00:00,141.86
2022-11-06,17:10:00,141.85
2022-11-06,17:20:00,141.85
2022-11-06,17:30:00,141.84
2022-11-06,17:40:00,141.84
2022-11-06,17:50:00,141.82
2022-11-06,18:00:00,141.83
2022-11-06,18:10:00,141.84
2022-11-06,18:20:00,141.81
2022-11-06,18:30:00,141.82
2022-11-06,18:40:00,141.82
2022-11-06,18:50:00,141.83
2022-11-06,19:00:00,141.81
2022-11-06,19:10:00,141.79
2022-11-06,19:20:00,141.78
2022-11-06,19:30:00,141.81
2022-11-06,19:40:00,141.81
2022-11-06,19:50:00,141.8
2022-11-06,20:00:00,141.79
2022-11-06,20:10:00,141.82
2022-11-06,20:20:00,141.8
2022-11-06,20:30:00,141.79
2022-11-06,20:40:00,141.82
2022-11-06,20:50:00,141.79
2022-11-06,21:00:00,141.78
2022-11-06,21:10:00,141.79
2022-11-06,21:20:00,141.79
2022-11-06,21:30:00,141.8
2022-11-06,21:40:00,141.79
2022-11-06,21:50:00,141.77
2022-11-06,22:00:00,141.76
2022-11-06,22:10:00,141.77
2022-11-06,22:20:00,141.78
2022-11-06,22:30:00,141.77
2022-11-06,22:40:00,141.78
2022-11-06,22:50:00,141.76
2022-11-06,23:00:00,141.75
2022-11-06,23:10:00,141.77
2022-11-06,23:20:00,141.74
2022-11-06,23:30:00,141.75
2022-11-06,23:40:00,141.75
2022-11-06,23:50:00,141.76
2022-11-07,00:00:00,141.76
2022-11-07,00:10:00,141.76
2022-11-07,00:20:00,141.76
2022-11-07,00:30:00,141.76
2022-11-07,00:40:00,141.74
2022-11-07,00:50:00,141.75
2022-11-07,01:00:00,141.76
2022-11-07,01:10:00,-
2022-11-07,01:20:00,141.73
2022-11-07,01:30:00,141.75
2022-11-07,01:40:00,-
2022-11-07,01:50:00,141.74
2022-11-07,02:00:00,141.73
2022-11-07,02:10:00,141.75
2022-11-07,02:20:00,141.73
2022-11-07,02:30:00,141.74
2022-11-07,02:40:00,141.73
2022-11-07,02:50:00,141.72
2022-11-07,03:00:00,141.71
2022-11-07,03:10:00,141.72
2022-11-07,03:20:00,141.73
2022-11-07,03:30:00,141.73
2022-11-07,03:40:00,141.7
2022-11-07,03:50:00,141.72
2022-11-07,04:00:00,141.72
2022-11-07,04:10:00,141.71
2022-11-07,04:20:00,141.69
2022-11-07,04:30:00,141.7
2022-11-07,04:40:00,141.71
2022-11-07,04:50:00,141.71